Погода Мыс Болванский

Погода Мыс Болванский : погода сейчас, прогноз погоды и архив. Всё, что Вы хотите узнать о погоде Мыс Болванский!

Поиск расширенной информации на нашем сайте:

Полезная информация: Эта компания taganrog.delinet.ru придала наглядности наработки взято отсюда

Другие новости

Новости СМИ2

Главная страница сайта

Новости сайта

02.10.2013

Напоминаем, что на нашем новом сайте вы можете получить высокодетализированные прогнозы погоды по пунктам России, СНГ и мира (включающие важные для авиации метеовеличины, такие как направление и скорость ветра, видимость, явления погоды, количество и форма облачности, нижняя и верхняя граница облачности), а также ознакомиться с разнообразными материалами по авиационной метеорологии и подборкой полезных ссылок на эту тему.

Сайт Метеоцентр.Азия посвящён разработке технологий оптимизации авиаметеорологического обслуживания, включая проектирование и перспективное создание нескольких автоматизированных авиаметеорологических систем:
- система выпуска высокодетальных прогностических карт явлений погоды для нижнего воздушного пространства по России и ближнему зарубежью;
- система верификации прогнозов TAF (выпускаемых синоптиками официальных АМСГ РФ и ближнего зарубежья) и AUTOTAF (выпускаемых сайтом Метеоцентр.Азия) - выявление ошибок, онлайн-сопоставление с фактической погодой METAR, автоматическое внесение коррективов в прогнозы при резком отклонении фактической погоды от прогноза, подсчёт оправдываемости прогнозов по элементам и в целом;
- система обработки, анализа и отображения авиаметеорологической информации для применения провайдерами метеорологической информации.

Рекомендуем: Где купить металлический шкаф litpolmebel.com.

Погода Мыс Болванский - сегодня

Время (UTC), дата Ветер
(°,м/с) 
Видим.   Явления Облачность Т
(°С)
Тd
(°С)
f(%) Тe
(°С)
Pmin
(гПа)
dP
(гПа)
Po
(мм)
O2
(г/м3)
Тmin Tmax R s Состояние
почвы
06 21.06.17 060 (СВ) 8-10{11}  1000 м  дымка{туман}  10/10 210 м 
[St]
-1.3 -1.7 97 -6  1003.9  0.5  752  305           
09 21.06.17 070 (В) 7{10}  10 км    10/10 240 м 
[St]
-1 -1.4 97 -5  1004.6  0.7  752  304           
12 21.06.17 060 (СВ) 9-10{10}  10 км    10/10 240 м 
[St]
-0.9 -1.3 97 -6  1005.6  753  305           
15 21.06.17 050 (СВ) 8{11}  4000 м  дымка  10/10 210 м 
[St]
-1.1 -1.4 98 -6  1006.2  0.6  754  305    -0.9       
18 21.06.17 060 (СВ) 7-10{11}  4000 м  дымка  10/10 240 м 
[St]
-1.1 -3.4 84 -5  1006.3  0.1  754  305           
21 21.06.17 070 (В) 7{10}  1000 м  дымка  10/10 210 м 
[St]
-1.4 -3.7 84 -6  1006.9  0.5  754  306           
00 22.06.17 070 (В) 4000 м  дымка  10/10 270 м 
[St]
-1.5 -3.9 84 -6  1006.5  -0.3  754  306           
03 22.06.17 070 (В) 9-11{11}  10 км    10/10 240 м 
[St]
-1.4 -3.8 84 -6  1006  -0.5  754  306  -1.6      <0.5  неравномерный
мокрый или
старый снег
100% 
06 22.06.17 090 (В) 7{11}  2000 м  дымка  10/10 240 м 
[St]
-0.9 -3.3 84 -5  1006.5  0.5  754  305           
09 22.06.17 080 (В) 11-13{13}  10 км    10/10 270 м 
[St]
-0.8 -3.3 83 -6  1005.9  -0.7  753  305           
12 22.06.17 080 (В) 10-13{14}  10 км    10/10 270 м 
[St]
-0.6 -3.2 83 -6  1005.9  0.1  753  305           
15 22.06.17 060 (СВ) 11-13{14}  10 км    8/0 верхняя 
[Ci fib]
-0.2 -2.8 83 -5  1004.8  -1.2  753  304    -0.2       
18 22.06.17 060 (СВ) 12-15{16}  10 км    9/0 средняя, верхняя 
[Ac trans|Ci fib]
+0.2 -2.8 80 -5  1003.6  -1.1  752  303           
21 22.06.17 070 (В) 10-13{16}  10 км    9/9 840 м 
[Sc]
+0.8 -2.6 78 -4  1002.4  -1.2  751  302           
00 23.06.17 080 (В) 11-13{14}  10 км    10/10 400 м 
[Sc]
+0.8 -2.4 79 -4  1001.1  -1.3  750  302           
03 23.06.17 080 (В) 9-12{15}  1000 м  дымка  10/10 210 м 
[St]
+0.3 -2.3 83 -4  1000.2  -0.9  749  302  -0.2      <0.5  неравномерный
мокрый или
старый снег
100% 
06 23.06.17 100 (В) 7{12}  4000 м  дымка  10/10 240 м 
[St]
+0.6 -1.9 83 -3  998.8  -1.4  748  301           
09 23.06.17 090 (В) 7{11}  0200 м  туман  ?/?  
+0.8 -1 88 -3  998  -0.8  748  300           
12 23.06.17 080 (В) 0200 м  туман  ?/?  
+0.5 +0.2 98 -2  996.8  -1.3  747  300           
15 23.06.17 070 (В) 10 км  {туман}  9/0 средняя, верхняя 
[Ac trans|Ci fib]
+0.7 +0.3 97 -2  994.8  -1.9  745  299    +1.2       
18 23.06.17 020 (С) 0500 м  туман  ?/?  
+0.1 -0.2 98 -2  993.7  -1.2  744  300           
21 23.06.17 320 (СЗ) 0500 м  слаб. дождь{туман}  ?/?  
+0.2 -0.1 98 -2  992.1  -1.5  743  299           
00 24.06.17 290 (З) 10 км  слаб. дождь{туман}  10/10 240 м 
[Frnb|Ns]
+0.1 -2.2 84 -2  992.7  0.6  744  300           
03 24.06.17 340 (С) 20000 м  {дождь}  10/10 500 м 
[Sc]
+0.3 -2.1 84 -1  993.8  1.1  744  300  +0    <0.5  мокрый или
старый снег
50-90% 
06 24.06.17 010 (С) 10 км  {дождь}  10/10 400 м 
[Sc]
+0.4 -2.1 83 995.3  1.5  746  300           
Время (UTC), дата Ветер
(°,м/с) 
Видим.   Явления Облачность Т
(°С)
Тd
(°С)
f(%) Тe
(°С)
Pmin
(гПа)
dP
(гПа)
Po
(мм)
O2
(г/м3)
Тmin Tmax R s Состояние
почвы

Для получения пояснительной информации подведите курсор к названию столбца.

ПОГОДА Мыс Болванский - архив

Всё, что Вы хотите узнать о погоде Мыс Болванский - удобно и подробно!

Выберите нужную дату (начиная с 1 января 2015* года) и нажмите кнопку "Найти".
Будут отображены архивные сводки погоды по пункту Мыс Болванский, начиная с указанной даты.


Отображать данные в формате CSV (для использования в таблицах Excel)


Внимание! Наш архив погоды предназначен исключительно для личного некоммерческого использования в познавательных целях. Если Вам необходимы официальные справки о состоянии погоды (для производственных, юридических, коммерческих и т.п. целей), обращайтесь в органы Росгидромета.

*Примечание: данная дата относится к архиву по метеостанциям СССР (Россия, СНГ, Балтия).
Архив по метеостанциям Зарубежной Европы и Азии (кроме Китая) хранится 10 дней, по другим регионам земного шара (Китай, Африка, Америка, Австралия, Океания) - 1 день.

Мыс Болванский - район местоположения метеостанции


Название, широта, долгота, высота метеостанции:
Мыс Болванский 70.4°ш. 59.1°д. 13 м над ур. моря [Российская Федерация]

Дополнительная информация

В oтличие oт бoльшинства пoгoдных сайтoв мы публикуем пoдрoбную метеoинфoрмацию в детальнoм прoфессиoнальнoм фoрмате.

Характеристики температуры и влажнoсти вoздуха измеряются на высoте 2 м в тени вдали oт зданий и деревьев.
Скoрoсть ветра измеряется на высoте 10 м (на урoвне рoста челoвека скoрoсть ветра ниже в 1.5-2 раза). Если метеoстанция нахoдится в гoрoде или в лесу, тo скoрoсть ветра занижена на 2-4 м/с пo сравнению с oткрытым местoм. Скoрoсть ветра над акватoриями крупных рек и oзёр, а также на вершинах хoлмoв на 2-5 м/с выше, чем в oбычных услoвиях.
Атмoсфернoе давление в разных тoчках местнoсти мoжет значительнo oтличаться oт давления на метеoстанции, в зависимoсти oт услoвий рельефа (при пoдъёме на 10 м давление пoнижается примернo на 1 мм рт.ст.).